Clearfield, PA

10:45 PM EDT on March 24, 2017 (GMT -0400)
Clearfield-Lawrence

Weather History for KFIG - May, 2014

Change the Weather History Date:

Sunday, May 4, 2014

  Actual Average (KDUJ) Record (KDUJ)
Temperature  
Mean Temperature 48 °F -  
Max Temperature 55 °F 59 °F 84 °F (2001)
Min Temperature 42 °F 39 °F 24 °F (2002)
Degree Days  
Heating Degree Days 16    
Moisture  
Dew Point 37 °F    
Average Humidity 72    
Maximum Humidity 89    
Minimum Humidity 47    
Precipitation  
Precipitation 0.06 in - - ()
Sea Level Pressure  
Sea Level Pressure 29.88 in    
Wind  
Wind Speed 9 mph (West)    
Max Wind Speed 21 mph    
Max Gust Speed 33 mph    
Visibility 10 miles    
Events Rain    
Averages and records for this station are not official NWS values.
T = Trace of Precipitation, MM = Missing Value Source: NWS Daily Summary

Daily Weather History Graph

Daily Weather History Graph

Search for Another Location

Airport or City:

Trip Planner

Search our weather history database for the weather conditions in past years. The results will help you decide how hot, cold, wet, or windy it might be!

Date:

Astronomy

May. 04, 2014 Rise Set
Actual Time 6:07 AM EDT 8:13 PM EDT
Civil Twilight 5:37 AM EDT 8:43 PM EDT
Nautical Twilight 5:00 AM EDT 9:21 PM EDT
Astronomical Twilight 4:20 AM EDT 10:01 PM EDT
Moon 10:29 AM EDT (5/4) 12:17 AM EDT (5/4)
Length of Visible Light 15h 06m
Length of Day
14h 05m
Waxing Crescent, 27% of the Moon is Illuminated
May 4
Waxing Crescent
May 6
First Quarter
May 14
Full
May 21
Last Quarter
May 28
New

Hourly Weather History & Observations

Time (EDT) Temp. Windchill Dew Point Humidity Pressure Visibility Wind Dir Wind Speed Gust Speed Precip Events Conditions
12:54 AM 44.1 °F 41.5 °F 41.0 °F 89% 29.83 in 10.0 mi SSW 4.6 mph - N/A   Clear
1:54 AM 43.0 °F 40.3 °F 39.9 °F 89% 29.82 in 10.0 mi SW 4.6 mph - N/A   Clear
2:54 AM 44.1 °F 42.5 °F 39.0 °F 82% 29.82 in 10.0 mi Variable 3.5 mph - N/A   Overcast
3:54 AM 46.9 °F - 37.0 °F 68% 29.82 in 10.0 mi WSW 9.2 mph - 0.00 in Rain Light Rain
4:54 AM 46.0 °F 41.4 °F 36.0 °F 68% 29.83 in 10.0 mi WSW 9.2 mph - 0.01 in Rain Light Rain
5:54 AM 45.0 °F 39.7 °F 37.0 °F 74% 29.85 in 10.0 mi WSW 10.4 mph - 0.01 in Rain Light Rain
6:54 AM 44.1 °F 40.8 °F 37.9 °F 79% 29.86 in 10.0 mi SW 5.8 mph - 0.00 in Rain Light Rain
7:54 AM 44.1 °F 39.5 °F 39.9 °F 85% 29.84 in 10.0 mi SSW 8.1 mph - 0.00 in Rain Light Rain
8:54 AM 45.0 °F 41.8 °F 39.0 °F 80% 29.85 in 10.0 mi SW 5.8 mph - 0.00 in Rain Light Rain
9:54 AM 45.0 °F 41.8 °F 39.9 °F 82% 29.85 in 10.0 mi SW 5.8 mph - 0.01 in Rain Light Rain
10:54 AM 45.0 °F 41.2 °F 41.0 °F 86% 29.85 in 10.0 mi SSW 6.9 mph - 0.01 in Rain Light Rain
11:54 AM 48.0 °F - 39.9 °F 74% 29.84 in 10.0 mi West 9.2 mph 18.4 mph 0.00 in Rain Light Rain
12:02 PM 48.0 °F - 39.0 °F 71% 29.83 in 10.0 mi WNW 16.1 mph 21.9 mph 0.00 in Rain Light Rain
12:34 PM 46.0 °F 40.2 °F 41.0 °F 83% 29.85 in 10.0 mi NW 12.7 mph 24.2 mph 0.01 in Rain Light Rain
12:54 PM 46.9 °F - 39.9 °F 77% 29.87 in 10.0 mi NW 17.3 mph 23.0 mph 0.01 in Rain Light Rain
1:54 PM 46.0 °F 39.3 °F 39.0 °F 76% 29.88 in 7.0 mi NW 16.1 mph 24.2 mph 0.01 in Rain Light Rain
2:01 PM 46.9 °F - 39.9 °F 77% 29.85 in 10.0 mi NW 13.8 mph 20.7 mph 0.00 in Rain Light Rain
2:08 PM 46.9 °F - 37.9 °F 71% 29.86 in 10.0 mi NW 16.1 mph 24.2 mph 0.00 in Rain Light Rain
2:54 PM 50.0 °F - 37.9 °F 63% 29.88 in 10.0 mi NNW 19.6 mph 33.4 mph 0.00 in Rain Light Rain
3:54 PM 51.1 °F - 33.1 °F 50% 29.86 in 10.0 mi WNW 17.3 mph 25.3 mph 0.00 in   Scattered Clouds
4:54 PM 55.0 °F - 35.1 °F 47% 29.85 in 10.0 mi NW 9.2 mph 25.3 mph N/A   Mostly Cloudy
5:54 PM 51.1 °F - 35.1 °F 54% 29.87 in 10.0 mi NNW 13.8 mph 21.9 mph 0.00 in   Overcast
6:54 PM 50.0 °F - 34.0 °F 54% 29.90 in 10.0 mi NNW 17.3 mph 21.9 mph N/A   Overcast
7:54 PM 46.9 °F - 33.1 °F 59% 29.94 in 10.0 mi NW 20.7 mph 28.8 mph N/A   Mostly Cloudy
8:54 PM 45.0 °F 39.7 °F 34.0 °F 65% 29.97 in 10.0 mi WNW 10.4 mph - N/A   Partly Cloudy
9:54 PM 43.0 °F 41.3 °F 34.0 °F 71% 30.00 in 10.0 mi WNW 3.5 mph - N/A   Clear
10:54 PM 42.1 °F 39.2 °F 34.0 °F 73% 30.02 in 10.0 mi WSW 4.6 mph - N/A   Clear
11:54 PM 42.1 °F 37.7 °F 34.0 °F 73% 30.03 in 10.0 mi West 6.9 mph - N/A   Clear